TimeMST,TemperatureF,Dew PointF,Humidity,Sea Level PressureIn,VisibilityMPH,Wind Direction,Wind SpeedMPH,Gust SpeedMPH,PrecipitationIn,Events,Conditions,WindDirDegrees,DateUTC
12:53 AM,27.0,21.9,81,29.96,10.0,Calm,Calm,-,N/A,,Overcast,0,2012-12-27 07:53:00
1:53 AM,26.1,21.9,84,29.97,10.0,Calm,Calm,-,N/A,,Overcast,0,2012-12-27 08:53:00
2:17 AM,26.6,21.2,80,29.87,10.0,Calm,Calm,-,N/A,,Overcast,0,2012-12-27 09:17:00
2:53 AM,26.1,21.9,84,29.99,10.0,Calm,Calm,-,N/A,,Overcast,0,2012-12-27 09:53:00
3:53 AM,27.0,23.0,85,29.99,9.0,Calm,Calm,-,N/A,,Overcast,0,2012-12-27 10:53:00
4:53 AM,27.0,23.0,85,30.00,9.0,Calm,Calm,-,N/A,,Overcast,0,2012-12-27 11:53:00
5:53 AM,26.1,23.0,88,30.00,9.0,ESE,5.8,-,N/A,,Overcast,120,2012-12-27 12:53:00
6:12 AM,24.8,21.2,86,29.90,6.0,ESE,4.6,-,N/A,Snow,Light Snow,120,2012-12-27 13:12:00
6:21 AM,24.8,21.2,86,29.90,5.0,ESE,4.6,-,0.00,,Overcast,120,2012-12-27 13:21:00
6:53 AM,25.0,21.9,88,30.02,6.0,Calm,Calm,-,0.00,Snow,Light Snow,0,2012-12-27 13:53:00
7:23 AM,24.8,21.2,86,29.92,6.0,Calm,Calm,-,0.00,Snow,Light Snow,0,2012-12-27 14:23:00
7:39 AM,24.8,21.2,86,29.93,5.0,Calm,Calm,-,0.00,Snow,Light Snow,0,2012-12-27 14:39:00
7:53 AM,24.1,21.9,91,30.04,3.0,Calm,Calm,-,0.00,Snow,Light Snow,0,2012-12-27 14:53:00
8:07 AM,24.8,23.0,93,29.93,3.0,Calm,Calm,-,0.00,Snow,Light Snow,0,2012-12-27 15:07:00
8:42 AM,23.0,21.2,93,29.93,3.0,Calm,Calm,-,0.00,Snow,Light Snow,0,2012-12-27 15:42:00
8:53 AM,24.1,21.9,91,30.04,3.0,Calm,Calm,-,0.00,Snow,Light Snow,0,2012-12-27 15:53:00
9:53 AM,24.1,23.0,96,30.07,2.0,Calm,Calm,-,0.00,Snow,Light Snow,0,2012-12-27 16:53:00
10:02 AM,24.8,23.0,93,29.96,1.5,Calm,Calm,-,0.00,Snow,Light Snow,0,2012-12-27 17:02:00
10:08 AM,24.8,23.0,93,29.96,1.2,Calm,Calm,-,0.01,Snow,Light Snow,0,2012-12-27 17:08:00
10:30 AM,26.6,24.8,93,29.97,1.8,Calm,Calm,-,0.01,Snow,Light Snow,0,2012-12-27 17:30:00
10:53 AM,26.1,24.1,92,30.07,1.5,Calm,Calm,-,0.01,Snow,Light Snow,0,2012-12-27 17:53:00
11:05 AM,26.6,24.8,93,29.97,2.0,Calm,Calm,-,0.00,Snow,Light Snow,0,2012-12-27 18:05:00
11:21 AM,26.6,24.8,93,29.96,3.0,Calm,Calm,-,0.00,Snow,Light Snow,0,2012-12-27 18:21:00
11:53 AM,27.0,25.0,92,30.07,3.0,Calm,Calm,-,0.00,Snow,Light Snow,0,2012-12-27 18:53:00
12:53 PM,27.0,25.0,92,30.06,5.0,Calm,Calm,-,0.00,,Overcast,0,2012-12-27 19:53:00
1:53 PM,26.6,24.8,93,29.95,6.0,Calm,Calm,-,N/A,,Overcast,0,2012-12-27 20:53:00
2:53 PM,28.0,25.0,88,30.06,4.0,Calm,Calm,-,0.00,Snow,Light Snow,0,2012-12-27 21:53:00
3:53 PM,28.0,24.1,85,30.06,8.0,Calm,Calm,-,N/A,,Overcast,0,2012-12-27 22:53:00
4:53 PM,28.9,25.0,85,30.07,4.0,Calm,Calm,-,0.00,Snow,Light Snow,0,2012-12-27 23:53:00
5:53 PM,24.1,23.0,96,30.10,5.0,Calm,Calm,-,0.00,,Overcast,0,2012-12-28 00:53:00
6:53 PM,27.0,24.1,89,30.10,6.0,Calm,Calm,-,N/A,,Overcast,0,2012-12-28 01:53:00
7:53 PM,25.0,23.0,92,30.12,7.0,Calm,Calm,-,N/A,,Overcast,0,2012-12-28 02:53:00
8:53 PM,25.0,23.0,92,30.11,6.0,Calm,Calm,-,N/A,,Overcast,0,2012-12-28 03:53:00
9:53 PM,25.0,24.1,96,30.12,5.0,Calm,Calm,-,N/A,,Overcast,0,2012-12-28 04:53:00
10:53 PM,26.1,24.1,92,30.12,5.0,Calm,Calm,-,N/A,,Overcast,0,2012-12-28 05:53:00
11:53 PM,26.1,24.1,92,30.14,6.0,Calm,Calm,-,N/A,,Overcast,0,2012-12-28 06:53:00